This is the latest recevied weather packets stored in our database for station/object WX5RP. If no packets are shown the sender has not sent any weather packets the latest 10 day(s).
| Time | Temp. | Humidity | Pressure | Rain* | Wind** | Luminosity | Snow |
|---|---|---|---|---|---|---|---|
| 1777261516 | 4.44° C | 45% | 1010.8 hPa | 0 mm | - | 0 W/m² | - |
| 1777260916 | 4.44° C | 43% | 1010.4 hPa | 0 mm | - | 0 W/m² | - |
| 1777260316 | 6.11° C | 41% | 1009.9 hPa | 0 mm | - | 0 W/m² | - |
| 1777259716 | 6.67° C | 38% | 1009.6 hPa | 0 mm | - | 0 W/m² | - |
| 1777259116 | 6.67° C | 38% | 1010.2 hPa | 0 mm | - | 0 W/m² | - |
| 1777258516 | 6.67° C | 39% | 1010.4 hPa | 0 mm | - | 6 W/m² | - |
| 1777257916 | 7.22° C | 41% | 1010.2 hPa | 0 mm | - | 12 W/m² | - |
| 1777257315 | 8.33° C | 37% | 1009.4 hPa | 0 mm | - | 18 W/m² | - |
| 1777256716 | 8.89° C | 33% | 1008.6 hPa | 0 mm | - | 25 W/m² | - |
| 1777256115 | 10° C | 31% | 1008.6 hPa | 0 mm | - | 66 W/m² | - |
| 1777255516 | 10° C | 29% | 1009.9 hPa | 0 mm | - | 82 W/m² | - |
| 1777254915 | 10° C | 30% | 1010.2 hPa | 0 mm | - | 71 W/m² | - |
| 1777254315 | 9.44° C | 30% | 1009.9 hPa | 0 mm | - | 79 W/m² | - |
| 1777253715 | 10° C | 31% | 1009.9 hPa | 0 mm | - | 84 W/m² | - |
| 1777253115 | 10° C | 31% | 1009.5 hPa | 0 mm | - | 83 W/m² | - |
| 1777252515 | 10° C | 31% | 1009.5 hPa | 0 mm | - | 70 W/m² | - |
| 1777251915 | 10.56° C | 30% | 1009.4 hPa | 0 mm | - | 68 W/m² | - |
| 1777251315 | 10.56° C | 28% | 1009.3 hPa | 0 mm | - | 92 W/m² | - |
| 1777250716 | 11.11° C | 27% | 1009.6 hPa | 0 mm | - | 144 W/m² | - |
| 1777250115 | 11.11° C | 27% | 1009.6 hPa | 0 mm | - | 219 W/m² | - |
| 1777249517 | 11.11° C | 27% | 1009.4 hPa | 0 mm | - | 227 W/m² | - |
| 1777248917 | 11.11° C | 26% | 1009.1 hPa | 0 mm | - | 258 W/m² | - |
| 1777248317 | 11.11° C | 27% | 1008.9 hPa | 0 mm | - | 189 W/m² | - |
| 1777247717 | 11.67° C | 26% | 1008.8 hPa | 0 mm | - | 274 W/m² | - |
| 1777247117 | 11.67° C | 27% | 1009.2 hPa | 0 mm | - | 349 W/m² | - |
* Rain latest hour (hover to see other rain measurements)
** Current wind speed in m/s (hover to see current wind gust speed)